Torna al catalogo

STARLINK-5449

AttivoComunicazioniVLEO
NORAD 54780·PAYLOAD·🇺🇸 United States

Lanciato Dec 17, 2022 da Cape Canaveral Space Force Station

Loading…

Prossimi Passaggi (prossime 24 ore)

TLE

AggiornatoSource: CelesTrak SupGP

Epoca: Sep 15, 2026, 02:49 UTC

1 54780C 22175Y   26258.11784722 -.00034399  00000+0 -10163-2 0  2586
2 54780  53.1572 244.9494 0001257  90.7087 295.9819 15.34409672    16

Traccia STARLINK-5449 in tempo reale con AllMySat

Download on the App Store